Powrót do katalogu

STARLINK-35558

AktywnyŁącznośćVLEO
NORAD 66060·PAYLOAD·🇺🇸 United States

Wystrzelony Oct 19, 2025 z Cape Canaveral Space Force Station

Loading…

Następne Przeloty (najbliższe 24 godziny)

TLE

ŚwieżeSource: CelesTrak SupGP

Epoka: Sep 14, 2026, 22:32 UTC

1 66060C 25235C   26257.93937500  .00047765  00000+0  14113-2 0  2570
2 66060  53.1594  85.4045 0001258  79.5218  82.3342 15.34364249    15

Śledź STARLINK-35558 w czasie rzeczywistym z AllMySat

Download on the App Store